Weather History for Henderson, KY

Change the Weather History Date:

Thursday, February 20, 2014

  Actual Average Record
Temperature  
Mean Temperature 50 °F -  
Max Temperature 66 °F 48 °F 73 °F (1997)
Min Temperature 33 °F 30 °F -3 °F (1936)
Degree Days  
Heating Degree Days 16    
Moisture  
Dew Point 47 °F    
Average Humidity 78    
Maximum Humidity 100    
Minimum Humidity 61    
Precipitation  
Precipitation 0.02 in - - ()
Sea Level Pressure  
Sea Level Pressure 29.68 in    
Wind  
Wind Speed 14 mph (South)    
Max Wind Speed 32 mph    
Max Gust Speed 50 mph    
Visibility 10 miles    
Events Thunderstorm    
Averages and records for this station are not official NWS values.
T = Trace of Precipitation, MM = Missing Value Source: NWS Daily Summary

Daily Weather History Graph

Daily Weather History Graph

Search for Another Location

Airport:

Trip Planner

Search our weather history database for the weather conditions in past years. The results will help you decide how hot, cold, wet, or windy it might be!

Date:

Astronomy

Feb. 20, 2014 Rise Set
Actual Time 6:34 AM CST 5:35 PM CST
Civil Twilight 6:07 AM CST 6:01 PM CST
Nautical Twilight 5:37 AM CST 6:32 PM CST
Astronomical Twilight 5:06 AM CST 7:02 PM CST
Moon 11:22 PM CST (2/20) 9:23 AM CST (2/20)
Length of Visible Light 11h 54m
Length of Day
11h 00m
Waning Gibbous, 70% of the Moon is Illuminated
Feb 20
Waning Gibbous
Feb 22
Last Quarter
Mar 1
New
Mar 8
First Quarter
Mar 16
Full

Hourly Weather History & Observations

Time (CST) Temp. Windchill Dew Point Humidity Pressure Visibility Wind Dir Wind Speed Gust Speed Precip Events Conditions
12:15 AM 33.8 °F 27.7 °F 32.0 °F 93% 29.87 in 10.0 mi East 6.9 mph - N/A   Overcast
12:35 AM 33.8 °F 27.7 °F 33.8 °F 100% 29.87 in 10.0 mi ESE 6.9 mph - N/A   Overcast
12:55 AM 35.6 °F 29.9 °F 33.8 °F 93% 29.86 in 10.0 mi ESE 6.9 mph - N/A   Overcast
1:15 AM 37.4 °F 32.1 °F 33.8 °F 87% 29.85 in 10.0 mi ESE 6.9 mph - N/A   Overcast
1:35 AM 37.4 °F 31.4 °F 33.8 °F 87% 29.84 in 10.0 mi ESE 8.1 mph - N/A   Overcast
1:55 AM 39.2 °F 34.2 °F 33.8 °F 81% 29.83 in 10.0 mi ESE 6.9 mph - N/A   Overcast
2:15 AM 39.2 °F 35.0 °F 33.8 °F 81% 29.82 in 10.0 mi ESE 5.8 mph - N/A   Overcast
2:35 AM 41.0 °F 38.0 °F 35.6 °F 81% 29.81 in 10.0 mi SE 4.6 mph - N/A   Overcast
2:55 AM 42.8 °F 38.0 °F 35.6 °F 76% 29.80 in 10.0 mi SE 8.1 mph - N/A   Overcast
3:15 AM 42.8 °F 37.0 °F 35.6 °F 76% 29.79 in 10.0 mi SE 10.4 mph - N/A   Overcast
3:35 AM 42.8 °F 38.6 °F 35.6 °F 76% 29.78 in 10.0 mi SE 6.9 mph - N/A   Overcast
3:55 AM 42.8 °F 38.0 °F 37.4 °F 81% 29.76 in 10.0 mi SE 8.1 mph - N/A   Mostly Cloudy
4:15 AM 42.8 °F 36.6 °F 37.4 °F 81% 29.76 in 10.0 mi SE 11.5 mph - N/A   Partly Cloudy
4:35 AM 42.8 °F 37.0 °F 41.0 °F 93% 29.75 in 10.0 mi SSE 10.4 mph - N/A   Mostly Cloudy
4:55 AM 44.6 °F 38.4 °F 41.0 °F 87% 29.75 in 10.0 mi SSE 12.7 mph - N/A   Overcast
5:15 AM 44.6 °F 39.2 °F 42.8 °F 93% 29.74 in 10.0 mi SSE 10.4 mph - N/A   Overcast
5:35 AM 48.2 °F - 42.8 °F 82% 29.75 in 10.0 mi SSE 9.2 mph - N/A   Mostly Cloudy
5:55 AM 48.2 °F - 44.6 °F 87% 29.74 in 10.0 mi SSE 10.4 mph - N/A   Scattered Clouds
6:15 AM 48.2 °F - 44.6 °F 87% 29.73 in 10.0 mi SE 6.9 mph - N/A   Clear
6:35 AM 46.4 °F 41.1 °F 46.4 °F 100% 29.73 in 10.0 mi South 11.5 mph 18.4 mph N/A   Clear
6:55 AM 53.6 °F - 51.8 °F 94% 29.74 in 10.0 mi South 15.0 mph 18.4 mph N/A   Mostly Cloudy
7:15 AM 53.6 °F - 53.6 °F 100% 29.73 in 10.0 mi South 17.3 mph 21.9 mph N/A   Mostly Cloudy
7:35 AM 53.6 °F - 53.6 °F 100% 29.72 in 10.0 mi South 17.3 mph 26.5 mph N/A   Scattered Clouds
7:55 AM 59.0 °F - 53.6 °F 82% 29.72 in 10.0 mi South 18.4 mph 27.6 mph N/A   Clear
8:15 AM 53.6 °F - 51.8 °F 94% 29.70 in 10.0 mi South 24.2 mph 28.8 mph N/A   Partly Cloudy
8:35 AM 60.8 °F - 53.6 °F 77% 29.70 in 10.0 mi South 19.6 mph 27.6 mph N/A   Mostly Cloudy
8:55 AM 60.8 °F - 53.6 °F 77% 29.70 in 10.0 mi South 24.2 mph 33.4 mph N/A   Mostly Cloudy
9:15 AM 62.6 °F - 55.4 °F 77% 29.69 in 10.0 mi South 18.4 mph 26.5 mph N/A   Scattered Clouds
9:35 AM 62.6 °F - 55.4 °F 77% 29.69 in 10.0 mi South 16.1 mph 26.5 mph N/A   Overcast
9:55 AM 62.6 °F - 55.4 °F 77% 29.68 in 10.0 mi South 21.9 mph 28.8 mph N/A   Overcast
10:15 AM 62.6 °F - 55.4 °F 77% 29.67 in 10.0 mi South 19.6 mph 29.9 mph N/A   Overcast
10:35 AM 64.4 °F - 55.4 °F 73% 29.67 in 10.0 mi South 24.2 mph 28.8 mph N/A   Overcast
10:55 AM 64.4 °F - 55.4 °F 73% 29.67 in 10.0 mi South 23.0 mph 28.8 mph N/A   Overcast
11:15 AM 64.4 °F - 55.4 °F 73% 29.66 in 10.0 mi SSW 21.9 mph 26.5 mph N/A   Overcast
11:35 AM 64.4 °F - 55.4 °F 73% 29.65 in 10.0 mi South 18.4 mph 26.5 mph N/A   Overcast
11:55 AM 64.4 °F - 55.4 °F 73% 29.64 in 10.0 mi South 16.1 mph 27.6 mph N/A   Overcast
12:15 PM 64.4 °F - 55.4 °F 73% 29.63 in 10.0 mi South 20.7 mph 32.2 mph N/A   Overcast
12:35 PM 64.4 °F - 55.4 °F 73% 29.61 in 10.0 mi South 17.3 mph 26.5 mph N/A   Overcast
12:55 PM 66.2 °F - 55.4 °F 68% 29.60 in 10.0 mi South 20.7 mph 33.4 mph N/A   Overcast
1:15 PM 64.4 °F - 55.4 °F 73% 29.59 in 10.0 mi South 19.6 mph 31.1 mph N/A   Overcast
1:35 PM 60.8 °F - 57.2 °F 88% 29.59 in 7.0 mi SSW 19.6 mph 27.6 mph N/A   Overcast
1:55 PM 60.8 °F - 57.2 °F 88% 29.57 in 10.0 mi South 19.6 mph 28.8 mph N/A   Overcast
2:15 PM 62.6 °F - 57.2 °F 82% 29.56 in 10.0 mi South 20.7 mph 27.6 mph N/A   Overcast
2:35 PM 64.4 °F - 57.2 °F 77% 29.56 in 10.0 mi South 26.5 mph 31.1 mph N/A   Mostly Cloudy
2:55 PM 66.2 °F - 57.2 °F 73% 29.54 in 10.0 mi South 23.0 mph 31.1 mph N/A   Mostly Cloudy
3:15 PM 66.2 °F - 57.2 °F 73% 29.54 in 10.0 mi South 21.9 mph 36.8 mph N/A   Mostly Cloudy
3:35 PM 66.2 °F - 57.2 °F 73% 29.55 in 10.0 mi South 19.6 mph 36.8 mph N/A   Mostly Cloudy
3:55 PM 66.2 °F - 57.2 °F 73% 29.54 in 10.0 mi South 24.2 mph 29.9 mph N/A   Overcast
4:15 PM 66.2 °F - 57.2 °F 73% 29.53 in 10.0 mi South 21.9 mph 34.5 mph N/A   Mostly Cloudy
4:35 PM 66.2 °F - 57.2 °F 73% 29.53 in 10.0 mi South 23.0 mph 31.1 mph N/A   Scattered Clouds
4:55 PM 66.2 °F - 57.2 °F 73% 29.51 in 10.0 mi South 19.6 mph 27.6 mph N/A   Mostly Cloudy
5:15 PM 66.2 °F - 57.2 °F 73% 29.52 in 10.0 mi South 21.9 mph 29.9 mph N/A   Mostly Cloudy
5:35 PM 66.2 °F - 57.2 °F 73% 29.51 in 10.0 mi South 23.0 mph 29.9 mph N/A   Mostly Cloudy
5:55 PM 66.2 °F - 57.2 °F 73% 29.50 in 10.0 mi South 21.9 mph 31.1 mph N/A   Partly Cloudy
6:15 PM 66.2 °F - 57.2 °F 73% 29.51 in 10.0 mi SSW 32.2 mph 39.1 mph N/A   Partly Cloudy
6:35 PM 64.4 °F - 55.4 °F 73% 29.53 in 10.0 mi SW 21.9 mph 34.5 mph N/A   Mostly Cloudy
6:55 PM 55.4 °F - 55.4 °F 100% 29.53 in 7.0 mi SSW 27.6 mph 42.6 mph 0.01 in   Overcast
7:15 PM 59.0 °F - 57.2 °F 94% 29.54 in 10.0 mi SW 25.3 mph 31.1 mph N/A Thunderstorm Overcast
7:35 PM 57.2 °F - 46.4 °F 67% 29.58 in 10.0 mi West 28.8 mph 46.0 mph N/A   Overcast
7:55 PM 53.6 °F - 44.6 °F 72% 29.60 in 10.0 mi WNW 29.9 mph 41.4 mph 0.01 in Thunderstorm Thunderstorm
8:15 PM 51.8 °F - 39.2 °F 62% 29.64 in 10.0 mi WNW 32.2 mph 43.7 mph N/A   Overcast
8:35 PM 48.2 °F - 35.6 °F 62% 29.68 in 10.0 mi West 26.5 mph 49.5 mph N/A   Overcast
8:55 PM 46.4 °F 37.7 °F 35.6 °F 66% 29.70 in 10.0 mi WNW 26.5 mph 34.5 mph N/A   Overcast
9:15 PM 46.4 °F 37.9 °F 35.6 °F 66% 29.72 in 10.0 mi WNW 25.3 mph 32.2 mph N/A   Overcast
9:35 PM 44.6 °F 35.3 °F 32.0 °F 61% 29.73 in 10.0 mi WNW 26.5 mph 41.4 mph N/A   Overcast
9:55 PM 42.8 °F 34.3 °F 32.0 °F 66% 29.74 in 10.0 mi WNW 19.6 mph 28.8 mph N/A   Mostly Cloudy
10:15 PM 42.8 °F 35.4 °F 30.2 °F 61% 29.75 in 10.0 mi WNW 15.0 mph 20.7 mph N/A   Mostly Cloudy
10:35 PM 42.8 °F 35.4 °F 30.2 °F 61% 29.77 in 10.0 mi West 15.0 mph 27.6 mph N/A   Overcast
10:55 PM 41.0 °F 33.9 °F 30.2 °F 65% 29.78 in 10.0 mi West 12.7 mph - N/A   Mostly Cloudy
11:15 PM 39.2 °F 32.0 °F 30.2 °F 70% 29.79 in 10.0 mi West 11.5 mph - N/A   Clear
11:35 PM 39.2 °F 33.6 °F 30.2 °F 70% 29.80 in 10.0 mi WSW 8.1 mph - N/A   Clear
11:55 PM 39.2 °F 33.6 °F 30.2 °F 70% 29.80 in 10.0 mi WSW 8.1 mph - N/A   Clear